TITAN 3C TRANSTAGE DEB, 59981

Orbit data source: Space-Track

TITAN 3C TRANSTAGE DEB, 59981 is space debris in GEO originally from a launch on Thu, 26 Sep 1968 UTC launched from the Air Force Eastern Test Range (AFETR). Debris objects in space refer to the collection of defunct objects orbiting the Earth. Examples of debris include non-operational satellites, rocket bodies, and fragments generated from explosions, collisions, or faulty payload assembly.

Not visible in the next 10 days
Identifier
59981, 1968-081AP
Orbit
GEO
Country
Flag of USUS
Related business
Manufacturer
Unknown
Mission
Spacecraft
Bus & Motor
Unknown
Mass
Unknown
Launch date (UTC)
1968-09-26 (58 years ago)
Launch vehicle
Unknown
Launch site
Air Force Eastern Test Range (AFETR)
Object type
Payload
Rocket body
Debris
Shape & HBR
Unknown shape, 1.1 m
Radar Cross Section
RCS unknown

Expand to show TLE details & history
Last TLE update: 1 month ago

TLE from 1 month ago
0 TITAN 3C TRANSTAGE DEB
1 59981U 68081AP  26218.27899737 -.00000045  00000-0  00000-0 0  9996
2 59981   2.4815  50.1921 0213217 254.1985 344.9116  1.00894743 61362
Epoch: 2026-08-06T06:41Z
TLE epoch observation values (Epoch: 2026-08-06T06:41:45.372Z)
Latitude
-2.12334°
Longitude
-126.6403°
Altitude
34,746.41 km
Speed
3.145 km/s
True Right ascension
19h 14m 28s
True Declination
-2° 07' 16"
Sunlit
Object was in daylight at epoch
Visualization orbit readout
Latitude
Unknown
Longitude
Unknown
Altitude
Unknown
Speed
Unknown
Apparent Right ascension
Unknown
Apparent Declination
Unknown
Sunlit
N/A
Visualization observer readout
Local Sidereal Time
04:11:16
Azimuth
Unknown
Elevation
Unknown
Doppler factor
Unknown
Orbital elements
Apogee altitude
36,509.271 km
Perigee altitude
34,718.587 km
Semi-major axis
41,992.066 km
Eccentricity
0.02132
Inclination
2.4815°
RAAN
50.1921°
Arg. of periapsis
254.1985°
True anomaly
344.25882°
Mean anomaly
344.9116°
Eccentric anomaly
344.58692°
Mean motion
0.25223 °/min
Orbital period
1,427.28 mins
BSTAR
0
Loading maneuver chart data...
Computing Atmospheric mass density...

Documentation

Showing up to 5 results
|